K3SV Weather Reports


Display with metric or nautical units.
time (UTC)temp
F
wind
direction
speed
MPH
gust
MPH
rain 1hr
in
rain 24hr
in
rain mn
in
humidity
%
barometer
mb
20260510204610 89 351 2.0 3.0 0.00 0.02 0.02 61 1015.2
20260510204107 89 196 3.0 4.0 0.00 0.02 0.02 60 1015.1
20260510203559 89 248 1.0 1.0 0.00 0.02 0.02 62 1015.2
20260510203056 89 11 0.0 0.0 0.00 0.02 0.02 64 1015.2
20260510202555 88 303 1.0 1.0 0.00 0.02 0.02 65 1015.2
20260510202051 89 17 1.0 1.0 0.00 0.02 0.02 64 1015.0
20260510201548 89 351 1.0 2.0 0.00 0.02 0.02 64 1015.0
20260510201045 89 30 1.0 1.0 0.00 0.02 0.02 64 1015.1
20260510200541 89 358 0.0 0.0 0.00 0.02 0.02 64 1015.0
20260510200039 90 348 3.0 3.0 0.00 0.02 0.02 63 1015.2
20260510195536 90 350 0.0 0.0 0.00 0.02 0.02 63 1015.0
20260510195032 89 343 0.0 0.0 0.00 0.02 0.02 62 1015.1
20260510194527 92 346 3.0 3.0 0.00 0.02 0.02 61 1015.2
20260510194024 92 338 1.0 1.0 0.00 0.02 0.02 56 1015.2
20260510193519 92 283 3.0 4.0 0.00 0.02 0.02 59 1015.0
20260510193015 92 256 2.0 2.0 0.00 0.02 0.02 60 1015.0
20260510192509 91 198 4.0 6.0 0.00 0.02 0.02 62 1015.1
20260510192006 87 310 2.0 3.0 0.00 0.02 0.02 69 1015.3
20260510191502 86 310 1.0 2.0 0.00 0.02 0.02 73 1015.1
20260510190959 85 280 3.0 4.0 0.00 0.02 0.02 73 1015.1
20260510190456 86 221 1.0 2.0 0.00 0.02 0.02 73 1015.2
20260510185953 89 237 2.0 3.0 0.00 0.02 0.02 64 1015.0
20260510185450 89 209 6.0 7.0 0.00 0.02 0.02 61 1015.1
20260510184948 90 196 6.0 8.0 0.00 0.02 0.02 60 1015.2
20260510184445 90 242 5.0 8.0 0.00 0.02 0.02 59 1015.0
20260510183944 91 249 4.0 6.0 0.00 0.02 0.02 59 1015.0
20260510183441 91 209 2.0 3.0 0.00 0.02 0.02 58 1014.9
20260510182936 90 204 6.0 7.0 0.00 0.02 0.02 60 1015.0
20260510182432 91 195 6.0 8.0 0.00 0.02 0.02 58 1015.2
20260510181928 91 235 7.0 10.0 0.00 0.02 0.02 59 1015.4
20260510181426 91 189 4.0 4.0 0.00 0.02 0.02 59 1015.2
20260510180922 90 239 4.0 7.0 0.00 0.02 0.02 59 1015.5
20260510180419 91 190 9.0 11.0 0.00 0.02 0.02 58 1015.3
20260510175916 91 212 8.0 10.0 0.00 0.02 0.02 60 1015.6
20260510175412 92 205 6.0 9.0 0.00 0.02 0.02 58 1015.6
20260510174908 90 212 8.0 10.0 0.00 0.02 0.02 60 1015.6
20260510174406 90 223 7.0 8.0 0.00 0.02 0.02 61 1015.4
20260510173902 90 226 5.0 8.0 0.00 0.02 0.02 59 1015.8
20260510173358 91 211 8.0 9.0 0.00 0.02 0.02 60 1015.9
20260510172854 91 248 4.0 4.0 0.00 0.02 0.02 60 1015.8
20260510172350 90 192 7.0 8.0 0.00 0.02 0.02 61 1015.9
20260510171841 90 178 8.0 9.0 0.00 0.02 0.02 61 1016.0
20260510171339 89 188 7.0 9.0 0.00 0.02 0.02 61 1016.2
20260510170836 89 256 4.0 4.0 0.00 0.02 0.02 61 1016.3
20260510170332 90 219 6.0 7.0 0.00 0.02 0.02 60 1016.2
20260510165827 89 274 2.0 3.0 0.00 0.02 0.02 62 1016.4
20260510165324 91 236 4.0 7.0 0.00 0.02 0.02 59 1016.3
20260510164821 91 236 6.0 7.0 0.00 0.02 0.02 58 1016.2
20260510164319 89 355 0.0 0.0 0.00 0.02 0.02 61 1016.5
20260510163818 89 215 6.0 8.0 0.00 0.02 0.02 60 1016.5
20260510163315 90 198 10.0 11.0 0.00 0.02 0.02 59 1016.4
20260510162814 90 199 3.0 4.0 0.00 0.02 0.02 60 1016.5
20260510162312 90 303 4.0 7.0 0.00 0.02 0.02 60 1016.5
20260510161807 90 239 2.0 2.0 0.00 0.02 0.02 60 1016.4
20260510161303 89 28 3.0 4.0 0.00 0.02 0.02 59 1016.6
20260510160801 88 353 0.0 1.0 0.00 0.02 0.02 64 1016.7
20260510160257 88 291 2.0 3.0 0.00 0.02 0.02 61 1016.6
20260510155757 88 231 4.0 4.0 0.00 0.02 0.02 62 1016.8
20260510155253 88 248 4.0 4.0 0.00 0.02 0.02 63 1016.6
20260510154749 87 237 5.0 6.0 0.00 0.02 0.02 63 1016.6
20260510154245 89 261 3.0 3.0 0.00 0.02 0.02 60 1016.6
20260510153740 88 247 4.0 4.0 0.00 0.02 0.02 62 1016.3
20260510153236 86 183 3.0 3.0 0.00 0.02 0.02 64 1016.4
20260510152733 87 209 10.0 11.0 0.00 0.02 0.02 65 1016.6
20260510152229 87 136 2.0 3.0 0.00 0.02 0.02 67 1016.6
20260510151726 86 185 5.0 7.0 0.00 0.02 0.02 69 1016.6
20260510151225 85 124 1.0 1.0 0.00 0.02 0.02 71 1016.7
20260510150720 85 171 6.0 8.0 0.00 0.02 0.02 71 1016.7
20260510150215 85 174 2.0 3.0 0.00 0.02 0.02 71 1016.6
20260510145712 85 202 5.0 6.0 0.00 0.02 0.02 72 1016.8
20260510145208 86 178 4.0 4.0 0.00 0.02 0.02 70 1016.7
20260510144705 85 235 7.0 7.0 0.00 0.02 0.02 71 1016.7
20260510144201 85 240 6.0 8.0 0.00 0.02 0.02 71 1016.8
20260510143656 84 168 7.0 10.0 0.00 0.02 0.02 72 1016.7
20260510143153 84 173 5.0 7.0 0.00 0.02 0.02 74 1016.8
20260510142650 83 192 4.0 4.0 0.00 0.02 0.02 75 1016.6
20260510142146 83 207 8.0 9.0 0.00 0.02 0.02 76 1016.4
20260510141643 83 186 4.0 6.0 0.00 0.02 0.02 77 1016.7
20260510141142 82 182 4.0 4.0 0.00 0.02 0.02 78 1016.4
20260510140637 82 199 5.0 8.0 0.00 0.02 0.02 78 1016.6
20260510140137 82 107 1.0 2.0 0.00 0.02 0.02 79 1016.5
20260510135633 82 170 4.0 4.0 0.00 0.02 0.02 80 1016.4
20260510135129 81 139 2.0 3.0 0.00 0.02 0.02 82 1016.4
20260510134626 80 215 7.0 8.0 0.00 0.02 0.02 81 1016.5
20260510134123 80 135 2.0 3.0 0.00 0.02 0.02 83 1016.6
20260510133619 80 170 3.0 3.0 0.00 0.02 0.02 84 1016.4
20260510133115 79 223 4.0 4.0 0.00 0.02 0.02 84 1016.4
20260510132612 79 148 1.0 2.0 0.00 0.02 0.02 85 1016.4
20260510132109 79 225 4.0 6.0 0.00 0.02 0.02 86 1016.4
20260510131606 79 206 6.0 8.0 0.00 0.02 0.02 86 1016.5
20260510131103 79 169 1.0 1.0 0.00 0.02 0.02 88 1016.3
20260510130559 78 99 0.0 0.0 0.00 0.02 0.02 88 1016.3
20260510130057 78 174 1.0 1.0 0.00 0.02 0.02 88 1016.4
20260510125553 78 177 2.0 3.0 0.00 0.02 0.02 88 1016.5
20260510125050 78 186 4.0 4.0 0.00 0.02 0.02 89 1016.4
20260510124547 77 149 2.0 3.0 0.00 0.02 0.02 91 1016.2
20260510124044 77 195 2.0 2.0 0.00 0.02 0.02 92 1016.2
20260510123539 77 177 1.0 2.0 0.00 0.02 0.02 92 1016.1
20260510123035 76 202 0.0 2.0 0.00 0.02 0.02 93 1016.0
20260510122531 76 163 2.0 3.0 0.00 0.02 0.02 93 1016.0
20260510122027 75 167 1.0 1.0 0.00 0.02 0.02 95 1016.0
20260510121525 75 204 4.0 4.0 0.00 0.02 0.02 95 1015.9
20260510121022 75 208 3.0 3.0 0.00 0.02 0.02 96 1016.0
20260510120519 74 200 2.0 2.0 0.00 0.02 0.02 97 1015.6
20260510120015 74 200 2.0 2.0 0.00 0.02 0.02 97 1015.6
20260510115512 74 178 1.0 1.0 0.00 0.02 0.02 98 1015.6
20260510115008 73 205 2.0 2.0 0.00 0.02 0.02 98 1015.5
20260510114505 73 194 0.0 0.0 0.00 0.02 0.02 98 1015.6
20260510114000 73 221 0.0 0.0 0.00 0.02 0.02 99 1015.4
20260510113456 73 194 1.0 2.0 0.00 0.02 0.02 99 1015.3
20260510112954 73 213 0.0 0.0 0.00 0.02 0.02 99 1015.3
20260510112450 73 95 0.0 0.0 0.00 0.02 0.02 99 1015.3
20260510111947 72 59 0.0 0.0 0.00 0.02 0.02 99 1015.2
20260510111443 72 68 0.0 0.0 0.00 0.02 0.02 99 1014.8
20260510110939 72 68 0.0 0.0 0.00 0.02 0.02 99 1014.9
20260510110435 72 64 0.0 0.0 0.00 0.02 0.02 99 1014.8
20260510105931 72 64 0.0 0.0 0.00 0.02 0.02 99 1014.9
20260510105427 72 91 0.0 0.0 0.00 0.02 0.02 99 1014.8
20260510104922 72 95 0.0 0.0 0.00 0.02 0.02 98 1014.7
20260510104419 72 99 0.0 0.0 0.00 0.02 0.02 99 1014.8
20260510103915 72 98 0.0 0.0 0.00 0.02 0.02 99 1014.5
20260510103408 72 106 0.0 0.0 0.00 0.02 0.02 99 1014.3
20260510102903 72 109 0.0 0.0 0.00 0.02 0.02 99 1014.3
20260510102359 72 109 0.0 0.0 0.00 0.02 0.02 98 1014.1
20260510101856 73 98 0.0 0.0 0.00 0.02 0.02 98 1014.2
20260510101354 73 164 0.0 0.0 0.00 0.02 0.02 98 1013.9
20260510100850 73 94 0.0 0.0 0.00 0.02 0.02 98 1013.9
20260510100347 73 181 0.0 0.0 0.00 0.02 0.02 98 1014.1
20260510095844 72 86 0.0 0.0 0.00 0.02 0.02 98 1014.0
20260510095333 72 143 0.0 0.0 0.00 0.02 0.02 98 1013.8
20260510094833 73 184 0.0 0.0 0.00 0.02 0.02 98 1014.1
20260510094328 73 77 0.0 0.0 0.00 0.02 0.02 98 1013.6
20260510093825 73 77 0.0 0.0 0.00 0.02 0.02 98 1013.6
20260510093321 73 77 0.0 0.0 0.00 0.02 0.02 98 1013.7
20260510092817 73 77 0.0 0.0 0.00 0.02 0.02 98 1013.9
20260510092313 73 76 0.0 0.0 0.00 0.02 0.02 98 1013.6
20260510091809 73 76 0.0 0.0 0.00 0.02 0.02 98 1013.4
20260510091307 73 78 0.0 0.0 0.00 0.02 0.02 98 1013.5
20260510090803 73 78 0.0 0.0 0.00 0.02 0.02 98 1013.6
20260510090300 73 78 0.0 0.0 0.00 0.02 0.02 98 1013.5
20260510085755 73 81 0.0 0.0 0.00 0.02 0.02 98 1013.4
20260510085249 73 83 0.0 0.0 0.00 0.02 0.02 98 1013.4
20260510084745 73 75 0.0 0.0 0.00 0.02 0.02 98 1013.5
20260510084243 73 74 0.0 0.0 0.00 0.02 0.02 98 1013.2
20260510083739 73 78 0.0 0.0 0.00 0.02 0.02 98 1013.3
20260510083237 73 80 0.0 0.0 0.00 0.02 0.02 98 1013.5
20260510082737 73 187 0.0 2.0 0.00 0.02 0.02 98 1013.1
20260510082234 73 80 0.0 0.0 0.00 0.02 0.02 98 1013.2
20260510081733 73 175 0.0 1.0 0.00 0.02 0.02 98 1013.3
20260510081229 73 105 0.0 0.0 0.00 0.02 0.02 98 1013.4
20260510080724 73 83 0.0 0.0 0.00 0.02 0.02 98 1013.3
20260510080220 73 95 0.0 0.0 0.00 0.02 0.02 98 1013.5
20260510075717 73 73 0.0 0.0 0.00 0.02 0.02 98 1013.6
20260510075215 73 60 0.0 0.0 0.00 0.02 0.02 98 1013.3
20260510074712 73 66 0.0 0.0 0.00 0.02 0.02 98 1013.3
20260510074208 73 55 0.0 0.0 0.00 0.02 0.02 98 1013.5
20260510073705 73 55 0.0 0.0 0.00 0.02 0.02 98 1013.4
20260510073200 73 50 0.0 0.0 0.00 0.02 0.02 98 1013.6
20260510072657 73 40 0.0 0.0 0.00 0.02 0.02 98 1013.7
20260510072153 73 42 0.0 0.0 0.00 0.02 0.02 98 1013.7
20260510071649 73 50 0.0 0.0 0.00 0.02 0.02 98 1013.6
20260510071147 73 50 0.0 0.0 0.00 0.02 0.02 98 1013.6
20260510070644 73 50 0.0 0.0 0.00 0.02 0.02 97 1013.8
20260510070142 73 50 0.0 0.0 0.00 0.02 0.02 97 1013.8
20260510065638 74 11 0.0 0.0 0.00 0.02 0.02 97 1013.8
20260510065134 74 18 0.0 0.0 0.00 0.02 0.02 97 1013.6
20260510064631 74 57 0.0 0.0 0.00 0.02 0.02 97 1013.8
20260510064127 74 54 0.0 0.0 0.07 0.02 0.02 96 1013.7
20260510063624 74 69 0.0 0.0 0.07 0.02 0.02 96 1014.1
20260510063121 74 47 0.0 0.0 0.05 0.01 0.01 96 1014.0
20260510062617 74 47 0.0 0.0 0.05 0.01 0.01 96 1014.2
20260510062113 74 47 0.0 0.0 0.00 0.00 0.00 95 1014.4
20260510061609 74 17 0.0 0.0 0.00 0.00 0.00 95 1014.4
20260510061106 74 17 0.0 0.0 0.00 0.00 0.00 94 1014.6
20260510060602 74 42 0.0 0.0 0.00 0.00 0.00 95 1014.4
20260510060058 74 65 0.0 0.0 0.00 0.00 0.00 95 1014.7
20260510055554 74 1 0.0 0.0 0.00 0.00 0.00 95 1014.5
20260510055053 74 41 0.0 0.0 0.00 0.00 0.00 95 1014.5
20260510054549 74 194 0.0 0.0 0.00 0.00 0.00 95 1014.8
20260510054044 74 51 0.0 0.0 0.00 0.00 0.00 95 1014.7
20260510053544 74 52 0.0 0.0 0.00 0.00 0.00 95 1014.5
20260510053041 74 52 0.0 0.0 0.00 0.00 0.00 94 1014.5
20260510052537 74 52 0.0 0.0 0.00 0.00 0.00 94 1014.9
20260510052033 74 53 0.0 0.0 0.00 0.00 0.00 94 1015.0
20260510051528 74 53 0.0 0.0 0.00 0.00 0.00 94 1015.0
20260510051026 75 53 0.0 0.0 0.00 0.00 0.00 93 1014.9
20260510050523 75 51 0.0 0.0 0.00 0.00 0.00 93 1015.0
20260510050020 75 59 0.0 0.0 0.00 0.00 0.00 93 1015.0
20260510045517 75 26 0.0 0.0 0.00 0.00 0.00 92 1015.0
20260510045013 75 29 0.0 0.0 0.00 0.00 0.00 91 1015.0
20260510044510 76 16 0.0 0.0 0.00 0.00 0.00 90 1015.2
20260510044008 76 75 0.0 0.0 0.00 0.00 0.00 89 1015.1
20260510043502 77 57 0.0 0.0 0.00 0.00 0.00 87 1015.4
20260510043002 77 107 0.0 0.0 0.00 0.00 0.00 87 1015.3
20260510042457 77 62 0.0 0.0 0.00 0.00 0.00 86 1015.1
20260510041953 77 59 0.0 0.0 0.00 0.00 0.00 86 1015.2
20260510041450 77 36 0.0 0.0 0.00 0.00 0.00 85 1015.1
20260510040948 77 58 0.0 0.0 0.00 0.00 0.00 85 1014.9
20260510040444 77 36 0.0 0.0 0.00 0.00 0.00 84 1015.0
20260510035940 77 59 0.0 0.0 0.00 0.00 0.00 84 1014.9
20260510035437 77 44 0.0 0.0 0.00 0.00 0.00 84 1015.0
20260510034936 77 25 0.0 0.0 0.00 0.00 0.00 84 1014.9
20260510034436 77 51 0.0 0.0 0.00 0.00 0.00 84 1014.6
20260510033931 77 67 0.0 0.0 0.00 0.00 0.00 84 1014.8
20260510033427 77 47 0.0 0.0 0.00 0.00 0.00 84 1014.8
20260510032925 77 66 0.0 0.0 0.00 0.00 0.00 84 1014.6
20260510032421 77 58 0.0 0.0 0.00 0.00 0.00 84 1014.6
20260510031917 77 59 0.0 0.0 0.00 0.00 0.00 84 1014.7
20260510031412 77 48 0.0 0.0 0.00 0.00 0.00 83 1014.8
20260510030907 77 31 0.0 0.0 0.00 0.00 0.00 83 1014.7
20260510030404 77 44 0.0 0.0 0.00 0.00 0.00 83 1014.9
20260510025902 77 40 0.0 0.0 0.00 0.00 0.00 83 1014.8
20260510025359 78 25 0.0 0.0 0.00 0.00 0.00 82 1015.0
20260510024856 78 25 0.0 0.0 0.00 0.00 0.00 83 1014.8
20260510024352 78 25 0.0 0.0 0.00 0.00 0.00 82 1014.9
20260510023848 78 28 0.0 0.0 0.00 0.00 0.00 82 1014.9
20260510023345 78 29 0.0 0.0 0.00 0.00 0.00 81 1014.8
20260510022843 78 29 0.0 0.0 0.00 0.00 0.00 81 1015.0
20260510022342 78 29 0.0 0.0 0.00 0.00 0.00 81 1014.8
20260510021840 78 29 0.0 0.0 0.00 0.00 0.00 81 1014.9
20260510021339 78 29 0.0 0.0 0.00 0.00 0.00 81 1014.9
20260510020834 78 29 0.0 0.0 0.00 0.00 0.00 81 1014.5
20260510020329 78 29 0.0 0.0 0.00 0.00 0.00 81 1014.7
20260510015825 78 29 0.0 0.0 0.00 0.00 0.00 80 1014.5
20260510015321 78 29 0.0 0.0 0.00 0.00 0.00 79 1014.6
20260510014816 78 31 0.0 0.0 0.00 0.00 0.00 80 1014.7
20260510014314 78 18 0.0 0.0 0.00 0.00 0.00 79 1014.2
20260510013810 78 20 0.0 0.0 0.00 0.00 0.00 79 1014.2
20260510013305 79 18 0.0 0.0 0.00 0.00 0.00 79 1014.2
20260510012800 79 20 0.0 0.0 0.00 0.00 0.00 78 1014.2
20260510012255 79 23 0.0 0.0 0.00 0.00 0.00 77 1013.9
20260510011754 79 10 0.0 0.0 0.00 0.00 0.00 77 1013.9
20260510011250 79 18 0.0 0.0 0.00 0.00 0.00 76 1013.8
20260510010748 80 5 0.0 0.0 0.00 0.00 0.00 76 1013.6
20260510010244 80 344 0.0 0.0 0.00 0.00 0.00 75 1013.6
20260510005741 80 358 1.0 1.0 0.00 0.00 0.00 74 1013.7
20260510005237 80 2 0.0 0.0 0.00 0.00 0.00 73 1013.4
20260510004735 81 23 0.0 0.0 0.00 0.00 0.00 70 1013.6
20260510004233 81 13 0.0 0.0 0.00 0.00 0.00 70 1013.4
20260510003730 81 358 1.0 1.0 0.00 0.00 0.00 68 1013.5
20260510003226 82 353 0.0 0.0 0.00 0.00 0.00 66 1013.2
20260510002725 82 15 0.0 0.0 0.00 0.00 0.00 63 1013.2
20260510002223 82 355 0.0 1.0 0.00 0.00 0.00 61 1013.4
20260510001719 82 351 0.0 1.0 0.00 0.00 0.00 57 1013.3
20260510001218 83 3 0.0 0.0 0.00 0.00 0.00 57 1013.2
20260510000714 83 260 1.0 1.0 0.00 0.00 0.00 56 1012.9
20260510000211 83 157 1.0 1.0 0.00 0.00 0.00 55 1012.9
20260509235708 84 305 0.0 0.0 0.00 0.00 0.00 55 1012.7
20260509235204 84 310 1.0 2.0 0.00 0.00 0.00 54 1012.8
20260509234700 84 297 1.0 1.0 0.00 0.00 0.00 53 1012.8
20260509234157 84 263 2.0 2.0 0.00 0.00 0.00 52 1012.7
20260509233655 85 167 1.0 1.0 0.00 0.00 0.00 51 1012.7
20260509233153 85 235 2.0 3.0 0.00 0.00 0.00 50 1012.7
20260509232649 85 305 1.0 2.0 0.00 0.00 0.00 51 1012.2
20260509232146 86 300 2.0 3.0 0.00 0.00 0.00 52 1012.5
20260509231642 86 273 2.0 3.0 0.00 0.00 0.00 53 1012.5
20260509231140 86 208 3.0 4.0 0.00 0.00 0.00 55 1012.4
20260509230637 87 206 4.0 4.0 0.00 0.00 0.00 53 1012.1
20260509230133 87 228 3.0 3.0 0.00 0.00 0.00 53 1012.1
20260509225629 87 268 2.0 3.0 0.00 0.00 0.00 53 1012.0
20260509225125 87 195 6.0 7.0 0.00 0.00 0.00 52 1012.3
20260509224620 87 230 4.0 4.0 0.00 0.00 0.00 51 1012.1
20260509224118 87 216 4.0 4.0 0.00 0.00 0.00 51 1012.0
20260509223614 87 190 2.0 3.0 0.00 0.00 0.00 51 1011.9
20260509223112 88 221 5.0 7.0 0.00 0.00 0.00 51 1012.0
20260509222608 88 218 4.0 4.0 0.00 0.00 0.00 51 1011.9
20260509222104 88 261 2.0 2.0 0.00 0.00 0.00 50 1011.8
20260509221600 88 239 4.0 4.0 0.00 0.00 0.00 50 1011.8
20260509221056 89 232 4.0 7.0 0.00 0.00 0.00 50 1011.6
20260509220552 90 245 2.0 3.0 0.00 0.00 0.00 49 1011.9
20260509220048 90 297 2.0 3.0 0.00 0.00 0.00 49 1011.6
20260509215544 90 240 10.0 11.0 0.00 0.00 0.00 48 1011.7
20260509215041 91 225 5.0 7.0 0.00 0.00 0.00 47 1011.9
20260509214538 91 220 3.0 4.0 0.00 0.00 0.00 48 1011.7
20260509214035 90 205 5.0 7.0 0.00 0.00 0.00 49 1011.6
20260509213531 91 225 6.0 8.0 0.00 0.00 0.00 49 1011.5
20260509213028 91 216 7.0 10.0 0.00 0.00 0.00 48 1011.3
20260509212526 90 261 5.0 7.0 0.00 0.00 0.00 50 1011.2
20260509212023 91 238 4.0 7.0 0.00 0.00 0.00 50 1011.5
20260509211518 90 274 2.0 3.0 0.00 0.00 0.00 51 1011.2
20260509211015 91 238 4.0 6.0 0.00 0.00 0.00 51 1011.3
20260509210512 91 211 7.0 9.0 0.00 0.00 0.00 50 1011.1
20260509210008 91 206 5.0 6.0 0.00 0.00 0.00 51 1011.2
20260509205502 91 219 4.0 4.0 0.00 0.00 0.00 50 1011.3
20260509204958 91 280 5.0 7.0 0.00 0.00 0.00 51 1011.2